Content
SEND FEEDBACK

Daily
Averages
Monthly
Summary
United States of America

LIHUE, HAWAII


Home > North America > United States > Hawaii
Elevation: 103 feet     Latitude: 21 59N     Longitude: 159 21W

WEATHER
 
SELECT A DAY
Number of Records: 223,176;   Date Range: 1/1/95 - 9/29/14
 
SHARE

PRINT THIS DATA

[ ← Previous Day ]
WEATHER ALMANAC - APRIL 30, 2013
[ Next Day → ]
[ °C ]   °F
Weather ElementAverageHighLow
Temperature74.4 °F80.1 °F (12:53 pm)70 °F (6:53 am)
Dewpoint69.9 °F71.1 °F (2:53 am)68 °F (6:53 am)
Humidity86.3 %97 % (2:53 am)69 % (12:53 pm)
Barometer29.99 in30.05 in (10:10 pm)29.93 in (2:53 am)
Wind Speed5.5 mph12.7 mph (12:53 pm)
Weather ElementAverage
Visibility9.5 mi
Wind DirectionSSE (158.7 °)

Weather ElementTotal
Precipitation0.32 in
Cooling Degree Days10.1 (Base 65)
Growing Degree Days25.1 (Base 50)
Averaged from 30 records on April 30, 2013
WEATHER CONDITIONS BREAKOUT
WIND DIRECTION BREAKOUT
WEATHER BY HOUR - APRIL 30, 2013
[ °C ]   °F
Local TimeTemperatureDewpointHumidityBarometerVisibilityWind DirectionWind SpeedGust SpeedPrecipitationEventsConditions
12:42 AM71.6 °F69.8 °F94 %29.96 in10.0 miWest (270°)5.8 mph0.01 inRainLight Rain
12:53 AM73.0 °F70.0 °F90 %29.95 in10.0 miWSW (240°)4.6 mph0.01 inOvercast
1:53 AM72.0 °F70.0 °F93 %29.94 in3.0 miSW (230°)6.9 mph0.01 inRainHeavy Rain
2:00 AM71.6 °F69.8 °F94 %29.95 in2.0 miWSW (240°)3.5 mph0.09 inRainHeavy Rain
2:10 AM71.6 °F69.8 °F94 %29.95 in10.0 miCalm0.10 inRainLight Rain
2:53 AM72.0 °F71.1 °F97 %29.93 in10.0 miSouth (190°)5.8 mph0.10 inOvercast
3:53 AM71.1 °F69.1 °F93 %29.93 in10.0 miCalm0.00 inOvercast
4:53 AM71.1 °F69.1 °F93 %29.94 in10.0 miCalmOvercast
5:53 AM71.1 °F69.1 °F93 %29.95 in10.0 miWNW (290°)3.5 mphMostly Cloudy
6:53 AM70.0 °F68.0 °F93 %29.96 in10.0 miWest (270°)5.8 mphClear
7:53 AM72.0 °F70.0 °F93 %29.98 in10.0 miWSW (250°)3.5 mphScattered Clouds
8:53 AM77.0 °F71.1 °F82 %30.00 in10.0 miSouth (170°)5.8 mphPartly Cloudy
9:53 AM78.1 °F70.0 °F76 %30.00 in10.0 miSouth (170°)10.4 mphMostly Cloudy
10:53 AM78.1 °F71.1 °F79 %30.00 in10.0 miSouth (180°)11.5 mphMostly Cloudy
11:53 AM79.0 °F69.1 °F72 %30.00 in10.0 miSouth (180°)10.4 mphMostly Cloudy
12:53 PM80.1 °F69.1 °F69 %29.99 in10.0 miSouth (170°)12.7 mphOvercast
1:53 PM80.1 °F71.1 °F74 %29.98 in10.0 miSSE (160°)11.5 mphOvercast
2:53 PM79.0 °F71.1 °F77 %29.97 in10.0 miSSE (150°)9.2 mphMostly Cloudy
3:53 PM78.1 °F70.0 °F76 %29.96 in10.0 miSSE (160°)11.5 mphOvercast
4:53 PM77.0 °F70.0 °F79 %29.97 in10.0 miSE (140°)9.2 mphOvercast
5:53 PM77.0 °F71.1 °F82 %29.98 in10.0 miSE (140°)8.1 mphOvercast
6:53 PM75.0 °F70.0 °F84 %29.99 in10.0 miSSE (150°)5.8 mphMostly Cloudy
7:53 PM73.9 °F70.0 °F87 %30.01 in10.0 miSSE (150°)4.6 mphClear
8:53 PM73.9 °F70.0 °F87 %30.03 in10.0 miSE (140°)4.6 mphClear
9:04 PM73.4 °F69.8 °F88 %30.04 in10.0 miSE (130°)3.5 mphClear
9:53 PM73.0 °F70.0 °F90 %30.04 in10.0 miCalmClear
10:10 PM73.4 °F69.8 °F88 %30.05 in10.0 miCalmMostly Cloudy
10:18 PM73.4 °F69.8 °F88 %30.05 in10.0 miCalmMostly Cloudy
10:53 PM73.0 °F70.0 °F90 %30.04 in10.0 miWNW (300°)3.5 mphMostly Cloudy
11:53 PM71.1 °F69.1 °F93 %30.04 in10.0 miWNW (290°)4.6 mphMostly Cloudy
Hourly data recorded from PHLI, located miles away from Lihue, Hawaii







STORIES FROM OUR PARTNERS